Overview Statistics Trail Chart Weather Telemetry Raw packets
 

This is the latest recevied weather packets stored in our database for station/object YO8PIC-13. If no packets are shown the sender has not sent any weather packets the latest 10 day(s).

<< 26 27 28 29 30 31 32 >>
Time Temp. Humidity Pressure Rain* Wind** Luminosity Snow
1788158539 25° C 43% 1020.5 hPa - - - -
1788157939 24.44° C 46% 1020.6 hPa - - - -
1788157339 23.89° C 47% 1020.7 hPa - - - -
1788156739 23.33° C 48% 1020.7 hPa - - - -
1788155541 22.22° C 50% 1020.8 hPa - - - -
1788154939 21.67° C 51% 1020.7 hPa - - - -
1788154339 21.67° C 52% 1020.7 hPa - - - -
1788153738 21.11° C 55% 1020.8 hPa - - - -
1788153138 20.56° C 55% 1020.9 hPa - - - -
1788152540 20° C 57% 1020.9 hPa - - - -
1788151939 20° C 57% 1020.9 hPa - - - -
1788150898 18.89° C 60% 1020.8 hPa - - - -
1788150298 18.89° C 60% 1020.7 hPa - - - -
1788149698 18.89° C 62% 1020.7 hPa - - - -
1788149098 18.33° C 62% 1020.8 hPa - - - -
1788148499 18.33° C 63% 1020.7 hPa - - - -
1788147899 18.33° C 64% 1020.6 hPa - - - -
1788147298 18.33° C 63% 1020.6 hPa - - - -
1788146698 18.33° C 64% 1020.7 hPa - - - -
1788146098 18.33° C 64% 1020.5 hPa - - - -
1788145498 18.33° C 65% 1020.6 hPa - - - -
1788144898 18.33° C 66% 1020.5 hPa - - - -
1788144299 18.33° C 66% 1020.4 hPa - - - -
1788143699 18.33° C 63% 1020.5 hPa - - - -
1788143098 18.89° C 63% 1020.5 hPa - - - -

* Rain since midnight (hover to see other rain measurements)
** Current wind speed in m/s (hover to see current wind gust speed)